Rexburg, ID

1:10 AM MST on February 08, 2016 (GMT -0700)
Rexburg-Madison County

Weather History for KRXE - February, 2014

Change the Weather History Date:

Sunday, February 2, 2014

  Actual Average Record
Temperature  
Mean Temperature 18 °F 20 °F  
Max Temperature 26 °F 29 °F 39 °F (2003)
Min Temperature 9 °F 10 °F -21 °F (2011)
Degree Days  
Heating Degree Days 47 45  
Month to date heating degree days 98 90  
Since 1 July heating degree days 4828 4867  
Cooling Degree Days 0 0  
Month to date cooling degree days 0 0  
Year to date cooling degree days 0 0  
Moisture  
Dew Point 13 °F    
Average Humidity 83    
Maximum Humidity 92    
Minimum Humidity 74    
Precipitation  
Precipitation T in 0.03 in 0.12 in (1989)
Month to date precipitation T 0.05  
Year to date precipitation 0.86 0.79  
Sea Level Pressure  
Sea Level Pressure 30.10 in    
Wind  
Wind Speed 2 mph (NE)    
Max Wind Speed 9 mph    
Max Gust Speed 13 mph    
Visibility 9 miles    
Events Snow    
T = Trace of Precipitation, MM = Missing Value Source: NWS Daily Summary

Daily Weather History Graph

Daily Weather History Graph

Search for Another Location

Airport or City:

Trip Planner

Search our weather history database for the weather conditions in past years. The results will help you decide how hot, cold, wet, or windy it might be!

Date:

Astronomy

Feb. 02, 2014 Rise Set
Actual Time 7:42 AM MST 5:39 PM MST
Civil Twilight 7:12 AM MST 6:10 PM MST
Nautical Twilight 6:38 AM MST 6:44 PM MST
Astronomical Twilight 6:04 AM MST 7:18 PM MST
Moon 9:03 AM MST (2/2) 9:37 PM MST (2/2)
Length of Visible Light 10h 57m
Length of Day
9h 56m
Waxing Crescent, 12% of the Moon is Illuminated
Feb 2
Waxing Crescent
Feb 6
First Quarter
Feb 14
Full
Feb 22
Last Quarter
Mar 1
New

Hourly Weather History & Observations

Time (MST) Temp. Windchill Dew Point Humidity Pressure Visibility Wind Dir Wind Speed Gust Speed Precip Events Conditions
12:29 AM 10.9 °F 4.7 °F 6.1 °F 81% 30.02 in 10.0 mi NE 3.5 mph - N/A   Overcast
12:53 AM 12.0 °F - 8.1 °F 84% 30.20 in 10.0 mi Calm Calm - N/A   Overcast
1:16 AM 12.9 °F 6.9 °F 8.1 °F 81% 30.02 in 10.0 mi NE 3.5 mph - N/A   Overcast
1:53 AM 12.9 °F - 9.0 °F 84% 30.18 in 10.0 mi Calm Calm - N/A   Overcast
2:10 AM 12.0 °F - 8.1 °F 84% 30.01 in 10.0 mi Calm Calm - N/A   Mostly Cloudy
2:53 AM 15.1 °F - 10.9 °F 84% 30.17 in 10.0 mi Calm Calm - N/A   Overcast
3:53 AM 15.1 °F - 10.9 °F 84% 30.17 in 10.0 mi Calm Calm - N/A   Overcast
4:53 AM 16.0 °F - 14.0 °F 92% 30.16 in 10.0 mi Calm Calm - N/A   Overcast
5:53 AM 15.1 °F 9.4 °F 12.9 °F 91% 30.17 in 10.0 mi WNW 3.5 mph - N/A   Overcast
6:53 AM 15.1 °F - 12.9 °F 91% 30.20 in 10.0 mi Calm Calm - N/A   Overcast
7:53 AM 15.1 °F - 12.9 °F 91% 30.23 in 2.5 mi Calm Calm - 0.00 in Snow Light Snow
7:59 AM 15.1 °F - 14.0 °F 95% 30.00 in 1.5 mi Calm Calm - 0.00 in Snow Light Snow
8:27 AM 16.0 °F - 14.0 °F 92% 30.00 in 3.0 mi Calm Calm - 0.00 in Snow Light Snow
8:36 AM 16.0 °F - 14.0 °F 92% 30.00 in 3.0 mi Calm Calm - 0.00 in Snow Light Snow
8:53 AM 17.1 °F - 15.1 °F 92% 30.21 in 5.0 mi Calm Calm - 0.00 in   Overcast
9:53 AM 16.0 °F - 14.0 °F 92% 30.22 in 8.0 mi Calm Calm - 0.00 in Snow Light Snow
10:53 AM 19.0 °F - 16.0 °F 88% 30.19 in 10.0 mi Calm Calm - 0.00 in   Overcast
11:53 AM 19.9 °F - 17.1 °F 89% 30.16 in 10.0 mi Calm Calm - N/A   Overcast
12:53 PM 21.9 °F - 17.1 °F 82% 30.12 in 10.0 mi Calm Calm - N/A   Overcast
1:53 PM 24.1 °F - 17.1 °F 75% 30.08 in 10.0 mi Calm Calm - N/A   Overcast
2:53 PM 25.0 °F 19.3 °F 18.0 °F 75% 30.06 in 10.0 mi East 4.6 mph - N/A   Overcast
3:53 PM 25.0 °F 20.7 °F 17.1 °F 72% 30.05 in 10.0 mi East 3.5 mph - N/A   Mostly Cloudy
4:53 PM 23.0 °F 17.0 °F 15.1 °F 72% 30.04 in 10.0 mi South 4.6 mph - N/A   Partly Cloudy
5:53 PM 21.9 °F 14.5 °F 17.1 °F 82% 30.04 in 10.0 mi South 5.8 mph - N/A   Overcast
6:53 PM 21.9 °F 12.5 °F 18.0 °F 85% 30.03 in 10.0 mi SSE 8.1 mph - N/A   Overcast
7:53 PM 17.1 °F - 14.0 °F 88% 30.04 in 10.0 mi Calm Calm - N/A   Mostly Cloudy
8:53 PM 16.0 °F 8.8 °F 12.9 °F 88% 30.04 in 10.0 mi NNW 4.6 mph - N/A   Overcast
9:53 PM 15.1 °F - 12.0 °F 88% 30.04 in 10.0 mi Calm Calm - 0.00 in   Overcast
10:53 PM 17.1 °F 10.0 °F 14.0 °F 88% 30.02 in 10.0 mi North 4.6 mph - 0.00 in   Overcast
11:53 PM 17.1 °F 10.0 °F 14.0 °F 88% 30.01 in 10.0 mi North 4.6 mph - N/A   Overcast